Theta_e
323 323 322 322 322 322 321 320 319 318 318 317 318 319 319 319 319 320 320 321 321 321 320 320 321 322 313 304 308 324 337 336 316 310 309 308 305 301 299 298 301 299 302 304 308 309 309
324 323 323 322 321 321 321 320 319 318 317 317 317 318 318 318 319 319 320 319 319 319 319 320 321 323 312 301 314 323 318 315 307 308 308 308 308 303 299 299 299 302 303 304 305 307 309
325 324 323 322 321 320 321 321 320 319 318 317 317 317 317 317 318 319 319 318 317 318 319 321 322 321 310 304 314 318 312 308 307 312 311 311 309 304 300 299 302 303 302 304 304 304 307
324 325 324 322 321 321 321 321 321 320 319 318 317 316 316 317 318 319 319 318 317 318 321 323 322 315 304 314 314 312 311 309 309 310 311 312 307 303 299 301 304 299 299 296 303 306 308
320 320 323 322 321 320 320 320 320 319 319 318 317 316 316 316 317 318 317 317 317 320 323 323 313 308 304 320 313 315 312 312 310 310 310 315 306 301 302 298 295 296 293 295 300 304 305
320 320 320 321 322 320 319 319 319 319 319 318 317 315 315 315 316 317 316 315 317 318 320 320 318 304 307 311 313 316 314 316 311 309 306 303 300 297 296 294 289 292 293 294 297 303 303
319 320 320 319 319 321 320 319 319 319 318 318 317 316 315 315 316 315 313 308 303 300 303 299 304 307 309 311 315 314 317 314 312 303 296 298 295 292 295 297 299 297 296 296 301 304 301
318 319 319 319 319 318 320 319 319 319 318 318 317 316 315 315 315 315 309 303 305 301 296 303 305 305 309 308 306 311 317 309 304 297 297 295 292 298 300 300 299 297 295 296 299 302 301
317 318 318 318 318 317 317 319 319 318 317 316 316 315 314 314 315 310 307 308 312 308 296 302 304 304 305 307 305 306 314 307 302 299 296 293 297 302 301 299 298 297 293 295 297 301 301
316 317 317 317 316 316 317 317 319 319 318 317 315 314 313 315 308 308 307 312 312 307 291 298 302 304 306 307 303 311 314 309 302 300 298 296 301 301 299 299 299 293 300 301 300 296 291
315 317 316 316 316 316 316 316 318 319 318 317 315 315 314 315 305 304 309 313 315 305 283 303 303 308 305 302 305 307 312 309 303 302 299 298 300 299 298 301 303 299 304 300 301 294 291
314 314 315 315 315 316 315 315 315 317 317 316 315 315 314 309 307 309 313 313 304 290 285 301 304 301 300 302 303 305 306 310 310 304 303 302 307 303 302 305 305 305 300 297 294 291 287
313 313 313 314 315 315 315 314 314 315 317 316 315 314 313 312 304 312 313 304 289 284 299 300 299 301 299 298 301 302 301 300 299 294 294 302 303 305 305 299 301 299 292 287 288 286 287
313 312 312 313 313 314 314 314 314 314 314 315 314 312 309 311 309 312 308 295 285 293 294 301 301 301 297 298 298 300 299 297 301 300 296 294 294 302 305 300 297 294 294 288 284 286 289
312 312 312 313 313 313 313 313 313 312 312 314 313 305 305 306 311 310 300 288 289 295 300 300 300 296 296 299 299 298 297 299 303 301 295 295 297 307 306 304 302 295 292 297 291 290 289
311 311 312 312 312 312 312 314 313 313 312 312 306 302 300 308 312 306 296 292 294 302 304 302 295 299 294 297 296 295 297 302 303 304 303 299 294 303 305 305 301 298 300 291 290 286 284
311 311 311 312 312 312 313 314 313 313 312 311 306 300 305 307 312 301 293 293 298 304 304 301 297 298 300 298 297 295 298 304 306 306 303 300 296 299 301 297 297 297 293 293 293 292 287
310 310 311 312 312 312 313 314 313 312 310 309 304 292 307 310 296 297 295 300 301 302 305 302 301 300 301 303 302 297 299 303 309 307 301 301 297 294 299 306 308 299 295 294 289 291 292
310 310 311 312 312 312 313 312 312 310 309 307 299 300 311 309 289 293 299 301 303 301 301 301 300 302 304 302 298 302 302 310 308 306 301 302 295 290 294 300 305 304 305 301 297 294 293
310 310 311 311 312 313 312 312 312 310 309 308 300 295 301 302 299 297 296 298 298 304 302 303 301 301 300 299 305 304 306 310 311 312 318 309 295 293 291 297 301 301 304 303 298 292 293
310 310 310 311 312 313 313 312 311 309 310 308 304 297 301 294 296 299 297 298 297 297 302 301 298 300 299 298 303 303 307 306 307 311 310 303 296 299 300 304 305 304 303 303 299 299 296
310 309 309 310 312 313 312 310 309 310 310 304 301 301 304 302 303 300 297 296 298 299 301 297 297 301 302 298 303 302 304 304 302 305 302 302 295 297 297 303 301 301 306 308 309 308 307
309 309 309 309 310 312 310 311 311 311 310 304 309 311 306 301 301 299 296 298 300 303 304 302 301 300 302 304 310 309 309 307 307 305 302 301 297 294 292 300 299 298 305 307 308 310 307
309 309 309 309 309 312 311 310 310 312 311 310 310 307 304 298 301 301 303 302 301 303 299 303 301 298 311 315 312 309 308 308 308 305 306 300 298 295 291 294 286 303 312 311 308 310 311
309 309 310 310 309 311 311 311 312 312 312 310 312 307 302 300 304 304 305 306 306 302 302 302 307 309 312 310 303 299 299 301 303 307 305 304 298 293 290 289 300 304 306 305 305 304 310
310 310 311 310 309 312 311 311 313 313 313 311 312 312 306 301 301 307 305 306 302 297 300 310 314 314 311 306 302 294 293 298 298 301 308 304 303 296 293 288 288 301 310 314 310 297 311
310 310 311 310 310 312 312 312 313 313 314 312 311 312 306 303 308 308 302 304 306 305 299 305 308 307 307 300 296 295 295 302 296 298 297 298 297 293 291 291 300 308 310 312 296 296 308
310 309 310 309 312 312 312 313 314 314 314 312 309 311 307 304 308 311 311 304 303 304 300 305 303 305 302 298 296 295 295 296 299 302 299 296 294 294 294 291 290 309 310 301 303 306 307
310 308 308 310 311 311 312 313 314 315 314 312 305 310 311 306 306 313 313 314 311 311 306 307 304 305 308 299 301 301 299 299 298 295 303 298 301 299 298 296 305 307 306 307 308 306 305
Wind_Speed
12 12 12 12 11 10 10 11 10 10 10 10 11 14 15 16 18 19 21 22 22 22 17 17 14 13 4 4 11 2 7 7 6 7 6 4 3 5 3 3 4 6 6 6 10 15 5
13 13 13 13 13 12 11 10 11 11 12 12 11 11 13 14 16 20 21 23 24 22 20 16 12 9 1 5 6 7 7 5 4 5 6 6 6 5 3 3 4 4 8 10 9 11 4
14 14 14 13 12 12 12 12 11 11 11 12 14 14 14 15 16 18 21 23 25 25 22 18 9 4 2 17 3 6 7 7 6 5 5 6 3 2 2 7 5 5 9 10 7 3 0
14 15 14 14 13 12 12 11 12 12 11 10 11 13 16 16 17 19 21 23 29 28 21 14 6 3 9 6 5 5 4 5 5 6 4 8 3 5 5 3 8 4 3 5 8 5 5
15 13 15 15 14 13 13 12 12 12 12 13 12 12 15 17 17 20 22 26 32 20 7 6 4 3 11 5 6 12 9 6 5 5 6 10 2 6 3 4 6 6 3 4 11 2 2
16 15 15 14 15 14 13 13 12 12 12 12 12 13 13 15 16 18 22 27 27 9 2 4 4 3 5 6 3 8 10 9 4 5 5 2 5 3 4 5 5 5 3 4 6 10 7
15 16 15 15 15 15 15 14 13 13 13 13 12 12 14 14 14 13 12 9 8 5 1 6 8 9 16 5 7 8 12 5 4 3 4 4 3 7 10 7 7 4 3 8 12 11 3
14 15 15 15 14 14 14 15 14 13 13 13 13 12 12 13 15 13 1 3 8 2 11 9 16 18 23 2 9 13 10 7 5 5 3 4 9 11 6 6 4 5 5 12 11 9 7
18 15 15 15 14 12 14 15 14 14 13 13 13 12 11 13 15 6 5 9 9 8 5 13 11 9 10 12 12 14 14 8 5 4 6 9 11 6 5 7 6 10 7 8 11 4 3
20 15 13 14 13 13 13 14 15 15 14 13 11 11 10 12 5 5 6 6 12 3 4 11 6 10 6 8 6 10 9 10 3 10 7 7 13 8 8 9 9 8 13 15 7 5 3
18 17 13 13 13 13 12 13 14 15 14 13 11 9 7 0 6 4 5 15 15 5 3 5 6 3 10 11 4 7 5 5 11 10 7 10 4 8 8 16 10 10 5 2 1 2 3
17 17 17 12 13 13 12 12 13 14 15 13 11 8 1 5 3 6 13 15 3 6 10 6 9 8 8 6 4 4 6 4 9 5 6 10 4 6 12 7 9 3 5 8 6 4 4
16 17 17 15 12 12 12 12 12 12 14 13 10 8 6 4 5 8 10 5 5 5 6 6 8 9 9 7 10 6 5 7 8 5 4 10 7 7 6 2 5 9 8 5 6 5 6
17 16 16 16 15 12 12 13 13 12 13 13 10 7 6 10 2 10 6 3 5 10 7 6 5 10 9 8 8 7 6 7 7 5 2 4 7 5 3 7 6 3 9 7 5 3 4
17 17 18 18 16 15 16 17 15 12 11 11 6 2 4 4 8 4 4 3 10 6 4 9 12 7 5 5 7 9 9 12 15 9 9 2 5 4 3 5 9 3 2 7 7 2 4
19 19 19 19 19 17 19 16 15 12 11 12 3 3 7 7 9 4 3 6 8 6 7 6 3 4 11 14 7 10 8 8 9 11 8 6 3 3 8 9 2 9 5 3 4 2 2
19 20 21 21 19 18 18 13 14 12 13 14 3 3 5 16 7 3 6 8 6 14 7 4 5 7 3 4 14 8 12 8 11 10 10 8 5 8 5 3 7 2 2 5 6 6 6
20 21 21 21 21 20 19 11 11 12 14 6 3 4 5 13 4 4 8 7 7 18 12 9 5 9 4 0 2 8 11 11 15 9 9 8 6 2 2 5 3 4 3 6 7 3 2
20 20 21 22 19 20 5 10 13 17 14 4 1 1 4 8 8 5 6 15 18 15 13 6 8 4 2 2 2 5 5 5 9 6 9 6 2 4 9 9 7 6 3 5 4 4 3
20 19 20 22 23 11 7 12 18 20 14 1 3 3 3 3 8 12 7 10 14 10 18 17 15 10 2 4 2 2 4 7 5 6 10 10 4 8 7 6 4 1 3 5 7 4 3
19 18 19 21 23 4 11 17 17 12 6 1 1 6 6 6 13 9 8 8 17 9 9 6 6 5 3 3 2 5 5 4 8 7 6 8 5 5 2 3 2 2 1 4 4 3 6
17 18 18 18 19 7 13 15 14 11 9 2 3 2 5 2 4 17 7 7 12 11 6 8 3 4 1 1 5 6 4 4 2 7 5 5 1 4 5 7 7 8 14 11 10 14 12
18 17 17 16 14 7 11 12 13 13 9 3 3 1 3 2 4 4 8 12 11 8 10 12 7 1 2 4 5 6 6 5 5 6 3 5 5 4 0 4 5 8 11 9 9 10 2
19 18 18 15 12 7 14 14 12 10 10 1 1 2 2 6 6 1 2 10 14 13 10 4 5 4 1 12 7 6 11 10 9 6 4 6 5 4 2 5 3 3 8 15 17 11 9
21 19 17 14 12 11 15 10 11 10 4 0 3 3 3 3 7 8 11 4 8 8 7 4 2 4 8 7 6 7 6 6 7 4 9 6 5 4 5 3 5 2 3 1 2 2 3
17 17 14 11 12 15 15 14 7 4 6 2 1 2 3 4 4 8 4 5 4 4 3 2 4 3 5 4 4 5 4 5 3 3 6 7 7 7 3 4 7 3 2 3 4 2 2
16 14 8 10 7 15 14 14 9 8 5 2 2 4 1 3 2 4 4 4 5 4 2 4 6 6 5 3 4 4 4 8 5 6 4 4 4 5 3 3 4 2 6 6 4 5 5
11 6 8 8 10 16 10 10 10 9 5 4 4 1 2 2 5 2 1 1 4 3 3 7 3 6 5 5 3 2 3 2 6 2 5 5 5 2 3 4 5 3 1 2 4 4 7
10 6 6 3 8 16 13 8 9 9 8 4 2 3 2 3 5 3 4 6 8 4 2 4 1 3 1 4 2 3 4 3 5 3 3 4 3 6 2 3 0 3 6 3 6 6 4
Wind_Direction
269 274 277 278 278 278 284 290 291 293 298 303 312 315 316 319 319 316 315 316 319 319 320 315 315 323 340 346 253 194 133 125 123 133 176 156 179 156 184 219 328 205 275 268 276 277 228
255 255 259 266 275 281 280 278 286 295 302 304 303 302 307 311 314 315 315 316 315 314 311 308 310 312 357 289 245 158 139 127 165 171 168 162 209 194 231 218 165 249 280 287 279 254 174
261 260 257 252 248 253 263 273 276 279 286 296 305 308 309 312 315 314 316 316 311 307 303 299 288 255 257 237 272 154 154 190 182 199 172 210 162 146 72 332 273 289 321 320 282 306 263
290 266 261 262 262 261 260 263 271 276 280 283 285 295 307 312 316 317 319 315 306 302 299 290 230 196 245 255 190 176 204 252 215 241 234 264 163 220 172 251 346 333 34 345 292 334 285
296 296 277 261 258 261 264 265 269 275 282 287 293 300 305 311 320 320 322 313 299 303 273 130 132 151 266 301 162 217 170 213 210 263 263 274 270 208 73 76 7 1 245 279 312 222 292
287 288 288 285 263 255 258 260 262 266 271 278 286 292 296 307 317 325 324 305 288 309 132 186 259 10 278 272 278 185 202 223 180 258 314 209 52 52 42 87 209 229 239 284 252 288 21
289 281 281 282 283 263 252 252 257 260 267 273 278 287 298 307 318 327 345 346 4 345 80 254 239 250 289 309 298 208 199 194 203 117 192 302 74 226 223 190 209 237 228 264 283 287 290
306 286 273 271 276 281 262 250 250 254 260 269 277 284 294 305 315 311 213 221 225 197 302 237 245 250 258 4 287 291 150 167 138 200 150 345 239 230 224 253 245 271 276 273 285 263 167
325 298 282 268 267 269 276 258 246 248 252 260 272 283 298 314 313 314 213 228 304 21 280 285 223 219 229 156 226 260 163 160 166 180 203 196 235 198 204 257 247 253 221 256 239 306 254
334 318 298 280 263 264 266 272 251 245 244 251 262 280 301 322 315 313 255 349 326 148 355 272 222 239 175 149 286 222 192 150 165 203 211 225 256 238 225 236 174 247 226 236 259 56 274
343 340 310 300 272 258 262 265 260 249 243 243 251 265 288 292 303 266 308 332 325 71 338 226 188 201 142 151 206 211 149 108 193 217 130 240 218 229 239 238 198 228 204 206 239 66 25
341 340 341 304 299 267 258 261 261 256 241 234 238 242 237 283 226 280 303 310 20 57 251 276 166 166 114 161 235 47 154 153 214 185 229 247 274 197 229 231 208 150 65 43 53 89 39
336 335 338 336 310 291 258 260 261 255 246 234 229 222 173 276 228 340 336 2 67 183 301 220 175 157 153 160 227 167 171 185 188 157 265 285 258 234 174 21 20 68 55 3 357 13 218
331 329 327 320 316 304 274 254 253 247 244 231 220 211 233 231 354 353 2 63 171 231 255 296 16 166 175 149 217 200 175 204 217 134 110 217 316 183 181 166 181 151 141 150 192 215 274
328 324 321 317 306 290 288 258 238 235 236 218 172 204 243 239 196 173 74 194 200 206 243 353 318 169 226 188 167 173 194 196 204 168 164 160 277 293 188 163 133 194 115 194 123 48 69
324 322 320 317 308 293 295 258 226 220 215 166 161 194 241 139 164 121 119 239 233 227 352 3 279 134 184 192 184 160 189 192 195 182 150 226 262 266 286 98 68 138 168 66 17 172 217
321 320 320 315 311 301 296 249 206 204 180 168 133 219 258 166 145 123 210 242 290 266 302 308 337 313 319 143 200 179 192 206 190 205 148 174 118 295 26 87 184 4 37 64 117 130 157
321 321 321 319 315 309 301 218 183 168 153 143 174 212 264 145 144 189 220 222 280 279 295 285 282 251 253 209 266 190 191 192 194 169 159 188 144 131 205 275 246 124 222 145 125 211 135
320 322 322 320 320 311 271 163 156 153 157 146 139 338 302 202 191 215 227 242 260 275 273 268 326 205 25 349 303 198 155 299 168 115 158 173 1 56 349 2 2 63 25 82 109 71 188
320 322 324 323 326 303 197 172 160 162 186 69 116 180 265 194 213 189 193 238 247 261 265 261 263 305 21 309 34 317 91 27 58 99 129 96 111 140 172 204 175 341 2 73 103 80 108
319 319 326 328 331 192 167 167 153 148 154 251 223 220 221 178 197 212 180 216 231 241 242 267 262 202 241 342 47 22 17 83 29 355 61 98 105 98 138 249 180 210 350 46 57 160 116
316 318 323 326 340 147 154 155 142 132 155 14 280 10 349 7 356 220 194 251 255 262 249 262 184 290 315 5 189 197 147 59 133 4 61 13 140 97 20 28 61 52 9 72 57 85 104
307 308 312 312 318 201 149 139 146 158 203 204 278 13 217 342 256 169 209 227 249 235 270 228 198 76 35 267 55 101 120 99 128 110 74 77 106 74 14 8 46 25 348 79 79 34 133
305 302 297 291 297 260 172 166 174 191 218 245 337 54 205 189 223 152 276 239 254 273 232 215 152 112 215 120 113 49 55 55 64 60 96 111 88 94 158 36 71 142 60 79 82 48 51
304 297 286 270 271 260 170 159 168 193 209 15 347 339 293 3 5 8 334 295 285 254 258 178 84 171 177 56 56 44 3 32 348 333 70 89 97 80 114 103 101 136 337 51 58 85 3
311 298 274 240 251 190 173 173 174 161 196 168 188 192 310 331 3 313 311 348 335 328 12 95 69 112 97 100 89 127 171 165 218 328 60 68 77 105 98 144 194 145 236 229 239 166 104
338 315 219 187 224 164 162 161 169 165 173 141 230 139 280 316 302 349 38 336 322 332 289 10 349 31 52 89 100 164 195 162 146 135 134 60 38 130 101 115 278 223 290 291 149 207 97
355 18 142 170 177 163 142 149 149 150 123 46 298 202 222 334 288 315 143 224 310 28 25 302 41 358 33 69 126 206 128 130 82 46 108 132 121 139 93 91 252 45 275 146 148 72 112
23 42 147 172 167 164 157 178 142 144 128 118 273 285 254 237 246 282 234 206 188 299 144 354 99 20 45 80 39 83 44 54 131 109 3 64 142 141 91 195 316 358 114 108 119 116 97